N1GUJ Weather Reports


Display with metric or nautical units.
time (UTC)temp
F
wind
direction
speed
MPH
gust
MPH
rain 1hr
in
rain 24hr
in
rain mn
in
humidity
%
barometer
mb
20260904224457 68 121 0.0 0.0 0.00 0.00 0.00 74 1010.4
20260904223956 68 121 0.0 2.0 0.00 0.00 0.00 74 1010.3
20260904223453 68 118 0.0 1.0 0.00 0.00 0.00 74 1010.3
20260904222953 68 117 0.0 1.0 0.00 0.00 0.00 74 1010.4
20260904222456 69 117 0.0 0.0 0.00 0.00 0.00 76 1010.4
20260904221956 69 117 0.0 0.0 0.00 0.00 0.00 76 1010.4
20260904221453 69 117 0.0 0.0 0.00 0.00 0.00 75 1010.3
20260904220956 69 117 0.0 1.0 0.00 0.00 0.00 75 1010.3
20260904220459 69 117 0.0 4.0 0.00 0.00 0.00 74 1010.3
20260904215959 69 145 0.0 1.0 0.00 0.00 0.00 75 1010.2
20260904215459 69 145 0.0 0.0 0.00 0.00 0.00 75 1010.2
20260904215000 70 145 0.0 1.0 0.00 0.00 0.00 74 1010.2
20260904214456 70 145 0.0 1.0 0.00 0.00 0.00 74 1010.0
20260904213953 70 145 0.0 1.0 0.00 0.00 0.00 73 1010.0
20260904213454 70 145 0.0 1.0 0.00 0.00 0.00 71 1010.1
20260904212956 71 145 0.0 0.0 0.00 0.00 0.00 72 1010.1
20260904212453 71 145 0.0 0.0 0.00 0.00 0.00 73 1010.1
20260904211956 71 145 0.0 0.0 0.00 0.00 0.00 72 1010.0
20260904211453 71 145 0.0 0.0 0.00 0.00 0.00 72 1010.0
20260904211002 71 145 0.0 1.0 0.00 0.00 0.00 69 1010.0
20260904210453 71 145 1.0 3.0 0.00 0.00 0.00 69 1010.1
20260904205953 72 153 0.0 3.0 0.00 0.00 0.00 70 1010.0
20260904205453 72 155 0.0 2.0 0.00 0.00 0.00 67 1010.1
20260904204956 72 155 0.0 1.0 0.00 0.00 0.00 69 1010.1
20260904204453 72 155 0.0 1.0 0.00 0.00 0.00 69 1010.2
20260904203953 72 155 0.0 2.0 0.00 0.00 0.00 67 1010.1
20260904203453 73 155 1.0 2.0 0.00 0.00 0.00 66 1010.0
20260904202953 73 155 0.0 1.0 0.00 0.00 0.00 67 1010.1
20260904202453 73 156 0.0 2.0 0.00 0.00 0.00 66 1010.0
20260904201956 73 156 0.0 2.0 0.00 0.00 0.00 66 1010.0
20260904201456 73 107 0.0 2.0 0.00 0.00 0.00 69 1010.0
20260904200953 73 96 0.0 5.0 0.00 0.00 0.00 67 1010.0
20260904200456 73 199 0.0 1.0 0.00 0.00 0.00 67 1010.0
20260904195953 73 199 0.0 2.0 0.00 0.00 0.00 67 1010.0
20260904195452 73 205 0.0 4.0 0.00 0.00 0.00 65 1010.1
20260904194959 74 182 2.0 2.0 0.00 0.00 0.00 68 1010.0
20260904194453 74 93 1.0 4.0 0.00 0.00 0.00 67 1010.0
20260904193953 74 95 0.0 4.0 0.00 0.00 0.00 64 1010.0
20260904193456 73 275 0.0 4.0 0.00 0.00 0.00 63 1010.0
20260904192958 73 182 0.0 2.0 0.00 0.00 0.00 67 1010.0
20260904192456 73 185 0.0 2.0 0.00 0.00 0.00 66 1010.0
20260904191953 73 186 0.0 5.0 0.00 0.00 0.00 64 1010.1
20260904191453 73 89 5.0 5.0 0.00 0.00 0.00 67 1010.0
20260904190953 74 220 3.0 5.0 0.00 0.00 0.00 65 1010.1
20260904190458 74 139 0.0 1.0 0.00 0.00 0.00 68 1010.1
20260904185959 73 139 0.0 2.0 0.00 0.00 0.00 67 1010.1
20260904185455 73 205 0.0 2.0 0.00 0.00 0.00 68 1010.3
20260904184955 73 229 0.0 2.0 0.00 0.00 0.00 67 1010.4
20260904184452 73 229 1.0 2.0 0.00 0.00 0.00 64 1010.3
20260904183952 73 229 0.0 7.0 0.00 0.00 0.00 65 1010.4
20260904183452 74 223 1.0 6.0 0.00 0.00 0.00 66 1010.3
20260904182952 74 180 1.0 3.0 0.00 0.00 0.00 67 1010.3
20260904182455 74 241 0.0 1.0 0.00 0.00 0.00 69 1010.3
20260904181952 74 241 0.0 3.0 0.00 0.00 0.00 68 1010.2
20260904181452 73 241 1.0 2.0 0.00 0.00 0.00 68 1010.2
20260904181001 73 241 0.0 1.0 0.00 0.00 0.00 67 1010.0
20260904180453 73 241 0.0 2.0 0.00 0.00 0.00 67 1010.2
20260904175956 72 241 1.0 2.0 0.00 0.00 0.00 68 1010.2
20260904175455 72 202 0.0 3.0 0.00 0.00 0.00 69 1010.4
20260904174953 72 212 0.0 2.0 0.00 0.00 0.00 69 1010.5
20260904174452 72 212 0.0 1.0 0.00 0.00 0.00 71 1010.6
20260904173952 72 212 0.0 2.0 0.00 0.00 0.00 66 1010.5
20260904173452 72 227 0.0 1.0 0.00 0.00 0.00 70 1010.4
20260904172952 72 227 0.0 2.0 0.00 0.00 0.00 67 1010.3
20260904172452 73 227 0.0 1.0 0.00 0.00 0.00 69 1010.3
20260904171955 73 227 0.0 3.0 0.00 0.00 0.00 66 1010.3
20260904171458 73 174 0.0 2.0 0.00 0.00 0.00 68 1010.3
20260904170955 73 205 0.0 4.0 0.00 0.00 0.00 66 1010.4
20260904170452 72 114 0.0 1.0 0.00 0.00 0.00 70 1010.3
20260904165956 72 86 0.0 2.0 0.00 0.00 0.00 70 1010.5
20260904165452 72 87 0.0 2.0 0.00 0.00 0.00 70 1010.5
20260904164952 72 77 0.0 5.0 0.00 0.00 0.00 67 1010.6
20260904164452 72 110 0.0 3.0 0.00 0.00 0.00 66 1010.5
20260904163952 72 94 0.0 3.0 0.00 0.00 0.00 65 1010.5
20260904163455 72 201 0.0 3.0 0.00 0.00 0.00 69 1010.5
20260904162952 72 263 0.0 3.0 0.00 0.00 0.00 68 1010.5
20260904162452 72 263 1.0 4.0 0.00 0.00 0.00 68 1010.5
20260904161955 72 185 0.0 4.0 0.00 0.00 0.00 69 1010.5
20260904161458 72 243 2.0 2.0 0.00 0.00 0.00 68 1010.7
20260904160952 72 306 0.0 4.0 0.00 0.00 0.00 69 1010.8
20260904160452 72 227 1.0 3.0 0.00 0.00 0.00 69 1010.8
20260904155952 72 219 1.0 4.0 0.00 0.00 0.00 70 1010.8
20260904155458 72 235 0.0 5.0 0.00 0.00 0.00 68 1010.9
20260904154952 72 252 2.0 3.0 0.00 0.00 0.00 69 1010.9
20260904154455 72 220 1.0 4.0 0.00 0.00 0.00 68 1011.0
20260904153951 72 349 3.0 4.0 0.00 0.00 0.00 67 1011.0
20260904153455 72 255 0.0 5.0 0.00 0.00 0.00 66 1011.0
20260904152952 72 255 0.0 5.0 0.00 0.00 0.00 68 1011.0
20260904152452 72 306 0.0 4.0 0.00 0.00 0.00 67 1011.0
20260904151955 72 240 1.0 3.0 0.00 0.00 0.00 72 1011.0
20260904151452 72 240 1.0 3.0 0.00 0.00 0.00 70 1010.9
20260904150951 72 240 0.0 5.0 0.00 0.00 0.00 71 1011.0
20260904150454 71 325 2.0 4.0 0.00 0.00 0.00 74 1011.0
20260904145952 71 217 0.0 4.0 0.00 0.00 0.00 71 1011.0
20260904145455 71 230 0.0 6.0 0.00 0.00 0.00 76 1010.9
20260904144951 70 230 0.0 6.0 0.00 0.00 0.00 73 1010.9
20260904144454 70 188 0.0 4.0 0.00 0.00 0.00 75 1010.9
20260904143951 69 85 0.0 4.0 0.00 0.00 0.00 77 1010.9
20260904143455 69 66 0.0 2.0 0.00 0.00 0.00 79 1010.9
20260904142951 68 70 0.0 0.0 0.00 0.00 0.00 79 1010.8
20260904142454 68 70 0.0 1.0 0.00 0.00 0.00 79 1010.9
20260904141951 68 70 0.0 3.0 0.00 0.00 0.00 79 1010.8
20260904141457 67 296 1.0 1.0 0.00 0.00 0.00 83 1010.9
20260904140951 67 297 2.0 3.0 0.00 0.00 0.00 85 1011.0
20260904140454 66 325 0.0 1.0 0.00 0.00 0.00 87 1010.9
20260904135954 66 325 0.0 2.0 0.00 0.00 0.00 86 1010.9
20260904135454 66 327 0.0 2.0 0.00 0.00 0.00 88 1011.0
20260904134955 65 327 0.0 2.0 0.00 0.00 0.00 89 1010.9
20260904134451 65 327 0.0 1.0 0.00 0.00 0.00 90 1010.9
20260904133958 65 327 0.0 0.0 0.00 0.00 0.00 91 1010.8
20260904133500 64 327 0.0 0.0 0.00 0.00 0.00 91 1010.9
20260904132951 64 327 0.0 0.0 0.00 0.00 0.00 91 1010.9
20260904132454 64 231 0.0 0.0 0.00 0.00 0.00 92 1010.9
20260904131951 64 231 0.0 0.0 0.00 0.00 0.00 93 1010.9
20260904131458 64 231 0.0 0.0 0.00 0.00 0.00 93 1011.0
20260904130951 64 231 0.0 0.0 0.00 0.00 0.00 93 1011.0
20260904130454 63 231 0.0 0.0 0.00 0.00 0.00 94 1010.9
20260904125957 63 231 0.0 0.0 0.00 0.00 0.00 94 1010.9
20260904125451 63 231 0.0 0.0 0.00 0.00 0.00 94 1010.9
20260904124951 63 231 0.0 0.0 0.00 0.00 0.00 94 1010.9
20260904124451 63 231 0.0 0.0 0.00 0.00 0.00 94 1011.0
20260904123954 63 231 0.0 0.0 0.00 0.00 0.00 94 1011.0
20260904123451 62 231 0.0 0.0 0.00 0.00 0.00 94 1011.0
20260904122951 62 231 0.0 0.0 0.00 0.00 0.00 94 1011.0
20260904122454 61 231 0.0 0.0 0.00 0.00 0.00 94 1011.1
20260904121954 61 231 0.0 0.0 0.00 0.00 0.00 94 1011.1
20260904121451 61 231 0.0 0.0 0.00 0.00 0.00 94 1011.1
20260904120951 60 231 0.0 0.0 0.00 0.00 0.00 94 1011.1
20260904120454 60 231 0.0 0.0 0.00 0.00 0.00 94 1011.0
20260904115954 60 231 0.0 0.0 0.00 0.00 0.00 94 1011.0
20260904115451 60 231 0.0 0.0 0.00 0.00 0.00 94 1011.0
20260904114957 59 231 0.0 0.0 0.00 0.00 0.00 94 1011.0
20260904114450 59 231 0.0 0.0 0.00 0.00 0.00 93 1010.9
20260904113951 59 231 0.0 0.0 0.00 0.00 0.00 92 1010.9
20260904113453 58 231 0.0 0.0 0.00 0.00 0.00 92 1010.7
20260904112953 58 231 0.0 0.0 0.00 0.00 0.00 92 1010.7
20260904112451 58 231 0.0 0.0 0.00 0.00 0.00 92 1010.6
20260904111951 59 231 0.0 0.0 0.00 0.00 0.00 92 1010.6
20260904111453 59 231 0.0 0.0 0.00 0.00 0.00 92 1010.6
20260904110954 59 231 0.0 0.0 0.00 0.00 0.00 92 1010.5
20260904110450 59 231 0.0 0.0 0.00 0.00 0.00 92 1010.5
20260904105950 59 231 0.0 0.0 0.00 0.00 0.00 92 1010.5
20260904105450 59 231 0.0 0.0 0.00 0.00 0.00 92 1010.3
20260904104953 59 231 0.0 0.0 0.00 0.00 0.00 92 1010.3
20260904104453 59 231 0.0 0.0 0.00 0.00 0.00 92 1010.3
20260904103953 59 231 0.0 0.0 0.00 0.00 0.00 91 1010.3
20260904103450 59 231 0.0 0.0 0.00 0.00 0.00 91 1010.3
20260904102953 59 231 0.0 0.0 0.00 0.00 0.00 91 1010.2
20260904102457 59 231 0.0 0.0 0.00 0.00 0.00 91 1010.2
20260904101950 59 231 0.0 0.0 0.00 0.00 0.00 91 1010.1
20260904101451 59 231 0.0 0.0 0.00 0.00 0.00 91 1010.1
20260904100953 59 231 0.0 0.0 0.00 0.00 0.00 91 1010.1
20260904100459 60 231 0.0 0.0 0.00 0.00 0.00 92 1010.1
20260904095950 60 231 0.0 0.0 0.00 0.00 0.00 92 1010.1
20260904095450 60 231 0.0 0.0 0.00 0.00 0.00 92 1010.2
20260904094953 60 231 0.0 0.0 0.00 0.00 0.00 92 1010.1
20260904094453 60 231 0.0 0.0 0.00 0.00 0.00 91 1010.1
20260904093951 60 231 0.0 0.0 0.00 0.00 0.00 91 1010.0
20260904093453 60 231 0.0 0.0 0.00 0.00 0.00 91 1009.9
20260904092953 60 231 0.0 0.0 0.00 0.00 0.00 91 1009.9
20260904092450 60 231 0.0 0.0 0.00 0.00 0.00 91 1009.9
20260904091950 60 231 0.0 0.0 0.00 0.00 0.00 91 1009.8
20260904091453 60 231 0.0 0.0 0.00 0.00 0.00 91 1009.8
20260904090950 61 231 0.0 0.0 0.00 0.00 0.00 91 1009.7
20260904090450 61 231 0.0 0.0 0.00 0.00 0.00 91 1009.7
20260904085959 61 231 0.0 0.0 0.00 0.00 0.00 91 1009.8
20260904085450 61 231 0.0 0.0 0.00 0.00 0.00 91 1009.8
20260904084950 61 231 0.0 0.0 0.00 0.00 0.00 91 1009.8
20260904084453 61 232 0.0 0.0 0.00 0.00 0.00 91 1009.8
20260904083950 61 232 0.0 0.0 0.00 0.00 0.00 91 1009.8
20260904083459 61 232 0.0 0.0 0.00 0.00 0.00 91 1009.8
20260904082950 62 232 0.0 0.0 0.00 0.00 0.00 91 1009.8
20260904082450 62 232 0.0 0.0 0.00 0.00 0.00 91 1009.9
20260904081953 62 232 0.0 0.0 0.00 0.00 0.00 91 1009.8
20260904081450 62 232 0.0 0.0 0.00 0.00 0.00 91 1009.8
20260904080953 62 232 0.0 0.0 0.00 0.00 0.00 91 1009.8
20260904080450 62 232 0.0 0.0 0.00 0.00 0.00 91 1009.8
20260904075950 62 232 0.0 0.0 0.00 0.00 0.00 91 1009.7
20260904075449 62 232 0.0 0.0 0.00 0.00 0.00 91 1009.7
20260904074953 62 232 0.0 0.0 0.00 0.00 0.00 91 1009.8
20260904074453 63 232 0.0 0.0 0.00 0.00 0.00 91 1009.8
20260904073950 63 232 0.0 0.0 0.00 0.00 0.00 91 1009.8
20260904073450 63 232 0.0 0.0 0.00 0.00 0.00 91 1009.8
20260904072953 63 232 0.0 0.0 0.00 0.00 0.00 91 1009.8
20260904072450 63 232 0.0 0.0 0.00 0.00 0.00 91 1009.8
20260904071953 63 232 0.0 0.0 0.00 0.00 0.00 91 1009.8
20260904071459 63 232 0.0 0.0 0.00 0.00 0.00 91 1009.8
20260904070950 63 232 0.0 0.0 0.00 0.00 0.00 91 1009.9
20260904070452 63 232 0.0 0.0 0.00 0.00 0.00 91 1009.8
20260904065950 63 232 0.0 0.0 0.00 0.00 0.00 91 1009.8
20260904065449 63 232 0.0 0.0 0.00 0.00 0.00 91 1009.8
20260904064952 63 232 0.0 0.0 0.00 0.00 0.00 91 1009.8
20260904064455 63 232 0.0 0.0 0.00 0.00 0.00 91 1009.8
20260904063949 63 232 0.0 0.0 0.00 0.00 0.00 91 1009.9
20260904063452 63 232 0.0 0.0 0.00 0.00 0.00 90 1009.9
20260904062949 63 232 0.0 0.0 0.00 0.00 0.00 90 1010.0
20260904062449 64 232 0.0 0.0 0.00 0.00 0.00 90 1010.0
20260904061953 64 232 0.0 0.0 0.00 0.00 0.00 90 1010.0
20260904061449 64 232 0.0 0.0 0.00 0.00 0.00 90 1010.1
20260904060950 64 232 0.0 0.0 0.00 0.00 0.00 90 1010.2
20260904060458 64 232 0.0 0.0 0.00 0.00 0.00 90 1010.2
20260904055949 64 232 0.0 0.0 0.00 0.00 0.00 90 1010.2
20260904055449 64 232 0.0 0.0 0.00 0.00 0.00 90 1010.2
20260904054950 64 232 0.0 0.0 0.00 0.00 0.00 90 1010.2
20260904054452 64 232 0.0 0.0 0.00 0.00 0.00 90 1010.2
20260904053955 64 232 0.0 0.0 0.00 0.00 0.00 90 1010.3
20260904053449 64 232 0.0 0.0 0.00 0.00 0.00 91 1010.4
20260904052949 64 232 0.0 0.0 0.00 0.00 0.00 90 1010.4
20260904052449 64 232 0.0 0.0 0.00 0.00 0.00 90 1010.5
20260904051952 64 232 0.0 0.0 0.00 0.00 0.00 90 1010.5
20260904051452 64 232 0.0 0.0 0.00 0.00 0.00 90 1010.6
20260904050949 64 232 0.0 0.0 0.00 0.00 0.00 90 1010.7
20260904050455 64 232 0.0 0.0 0.00 0.00 0.00 90 1010.6
20260904045953 64 232 0.0 0.0 0.00 0.00 0.00 90 1010.5
20260904045449 64 232 0.0 0.0 0.00 0.00 0.00 90 1010.5
20260904044950 64 232 0.0 0.0 0.00 0.00 0.00 90 1010.6
20260904044452 64 232 0.0 0.0 0.00 0.00 0.00 90 1010.6
20260904043955 64 232 0.0 0.0 0.00 0.00 0.00 89 1010.6
20260904043452 64 232 0.0 0.0 0.00 0.00 0.00 89 1010.7
20260904042952 64 232 0.0 0.0 0.00 0.00 0.00 89 1010.7
20260904042455 65 232 0.0 0.0 0.00 0.00 0.00 89 1010.8
20260904041949 65 232 0.0 0.0 0.00 0.00 0.00 89 1010.9
20260904041452 65 232 0.0 0.0 0.00 0.00 0.00 89 1010.8
20260904040952 65 232 0.0 0.0 0.00 0.00 0.00 89 1010.9
20260904040449 65 232 0.0 0.0 0.00 0.00 0.00 89 1010.9
20260904035952 65 232 0.0 0.0 0.00 0.00 0.00 89 1010.9
20260904035449 65 232 0.0 0.0 0.00 0.00 0.00 89 1010.9
20260904034952 65 232 0.0 0.0 0.00 0.00 0.00 89 1010.9
20260904034448 65 232 0.0 0.0 0.00 0.00 0.00 89 1010.9
20260904033949 65 232 0.0 0.0 0.00 0.00 0.00 88 1010.9
20260904033449 65 232 0.0 0.0 0.00 0.00 0.00 88 1010.9
20260904032949 65 232 0.0 0.0 0.00 0.00 0.00 87 1010.8
20260904032452 65 232 0.0 0.0 0.00 0.00 0.00 87 1010.8
20260904031955 65 232 0.0 0.0 0.00 0.00 0.00 87 1010.7
20260904031452 65 232 0.0 0.0 0.00 0.00 0.00 86 1010.8
20260904030955 66 232 0.0 0.0 0.00 0.00 0.00 86 1010.8
20260904030449 66 232 0.0 0.0 0.00 0.00 0.00 86 1010.8
20260904025951 66 232 0.0 0.0 0.00 0.00 0.00 86 1010.9
20260904025448 66 232 0.0 0.0 0.00 0.00 0.00 86 1010.9
20260904024951 66 232 0.0 0.0 0.00 0.00 0.00 86 1010.9
20260904024451 66 232 0.0 0.0 0.00 0.00 0.00 86 1010.9
20260904023948 66 232 0.0 0.0 0.00 0.00 0.00 86 1010.9
20260904023448 66 232 0.0 0.0 0.00 0.00 0.00 86 1010.9
20260904022952 66 232 0.0 0.0 0.00 0.00 0.00 86 1011.0
20260904022455 66 232 0.0 0.0 0.00 0.00 0.00 86 1011.1
20260904021954 66 232 0.0 0.0 0.00 0.00 0.00 85 1011.1
20260904021457 67 232 0.0 0.0 0.00 0.00 0.00 85 1011.1
20260904020948 67 232 0.0 0.0 0.00 0.00 0.00 85 1011.1
20260904020449 67 232 0.0 0.0 0.00 0.00 0.00 84 1011.1
20260904015951 67 232 0.0 0.0 0.00 0.00 0.00 85 1011.0
20260904015451 67 232 0.0 0.0 0.00 0.00 0.00 84 1011.2
20260904014948 67 232 0.0 0.0 0.00 0.00 0.00 84 1011.2
20260904014451 67 232 0.0 0.0 0.00 0.00 0.00 84 1011.3
20260904013951 68 232 0.0 0.0 0.00 0.00 0.00 83 1011.3
20260904013448 68 232 0.0 0.0 0.00 0.00 0.00 83 1011.2
20260904012952 68 232 0.0 0.0 0.00 0.00 0.00 83 1011.2
20260904012457 68 232 0.0 0.0 0.00 0.00 0.00 82 1011.1
20260904011951 68 231 0.0 0.0 0.00 0.00 0.00 83 1011.1
20260904011448 68 232 0.0 0.0 0.00 0.00 0.00 83 1011.1
20260904010948 69 232 0.0 0.0 0.00 0.00 0.00 83 1011.1
20260904010449 69 232 0.0 0.0 0.00 0.00 0.00 82 1011.0
20260904005949 69 232 0.0 0.0 0.00 0.00 0.00 83 1010.9
20260904005448 69 232 0.0 0.0 0.00 0.00 0.00 82 1010.9
20260904004948 69 232 0.0 0.0 0.00 0.00 0.00 82 1010.9
20260904004454 69 232 0.0 0.0 0.00 0.00 0.00 82 1010.7
20260904003951 69 232 0.0 0.0 0.00 0.00 0.00 82 1010.7
20260904003451 69 232 0.0 0.0 0.00 0.00 0.00 81 1010.6
20260904002951 70 232 0.0 0.0 0.00 0.00 0.00 81 1010.6
20260904002451 70 232 0.0 0.0 0.00 0.00 0.00 81 1010.3
20260904001957 70 232 0.0 0.0 0.00 0.00 0.00 81 1010.3
20260904001448 70 232 0.0 0.0 0.00 0.00 0.00 81 1010.2
20260904000951 70 232 0.0 0.0 0.00 0.00 0.00 80 1010.1
20260904000448 70 232 0.0 0.0 0.00 0.00 0.00 81 1010.1
20260903235957 70 232 0.0 0.0 0.00 0.00 0.00 80 1010.2
20260903235451 71 232 0.0 0.0 0.00 0.00 0.00 80 1009.9
20260903234948 71 232 0.0 0.0 0.00 0.00 0.00 80 1009.8
20260903234448 71 232 0.0 0.0 0.00 0.00 0.00 79 1009.8
20260903233953 71 232 0.0 0.0 0.00 0.00 0.00 77 1009.9
20260903233448 71 232 0.0 0.0 0.00 0.00 0.00 78 1009.8
20260903232947 72 232 0.0 0.0 0.00 0.00 0.00 78 1009.7
20260903232451 72 232 0.0 0.0 0.00 0.00 0.00 76 1009.8
20260903231947 72 232 0.0 0.0 0.00 0.00 0.00 76 1009.7
20260903231451 72 232 0.0 0.0 0.00 0.00 0.00 75 1009.9
20260903230954 73 232 0.0 0.0 0.00 0.00 0.00 75 1009.8
20260903230453 73 232 0.0 0.0 0.00 0.00 0.00 73 1009.9
20260903225951 73 232 0.0 0.0 0.00 0.00 0.00 72 1009.8
20260903225450 74 232 0.0 0.0 0.00 0.00 0.00 72 1009.6
20260903224948 74 232 0.0 0.0 0.00 0.00 0.00 73 1009.6